User: anonymous   Login
Location: La Vergne
(36.0160°N, 86.5820°W)
Time: 00:04:16
(UTC-05:00)
Language:

Cosmos 1703 Rocket - Orbit

View from above orbital plane
View from above orbital plane
View from above satellite
View from above satellite

Ground track
Ground track

The orbit data is extracted from the following two-line orbital elements,

1 16263U 85108B   15143.83533344  .00000309  00000-0  35306-4 0  9990
2 16263 082.5034 102.8305 0019124 319.2139 101.8651 14.82760273592442
Epoch (UTC): 23 May 2015 20:02:52
Eccentricity: 0.0019124
inclination: 82.5034°
perigee height: 607 km
apogee height: 634 km
right ascension of ascending node: 102.8305°
argument of perigee: 319.2139°
revolutions per day: 14.82760273
mean anomaly at epoch: 101.8651°
orbit number at epoch: 59244

The dashed part of the orbit path shows where the satellite is in the earth's shadow,  

DLR